EW5295 Weather Reports


time (UTC)temp
C
wind
direction
speed
KPH
gust
KPH
rain 1hr
cm
rain 24hr
cm
rain mn
cm
humidity
%
barometer
mb
20260504001527 31 114 0.0 1.6 0.00 0.00 0.00 20 1006.4
20260503231550 32 152 0.0 3.2 0.00 0.00 0.00 21 1007.0
20260503231527 32 151 0.0 3.2 0.00 0.00 0.00 23 1007.0
20260503211514 31 237 0.0 3.2 0.00 0.00 0.00 25 1008.7
20260503210028 31 148 0.0 3.2 0.00 0.00 0.00 25 1008.9
20260503193044 28 139 0.0 3.2 0.00 0.00 0.00 34 1010.0
20260503184548 26 166 0.0 3.2 0.00 0.00 0.00 42 1010.4
20260503183020 26 113 0.0 4.8 0.00 0.00 0.00 41 1010.6
20260503171520 21 143 0.0 3.2 0.00 0.00 0.00 56 1011.0
20260503053018 15 103 0.0 0.0 0.00 0.00 0.00 85 1011.8
20260503051539 15 103 0.0 0.0 0.00 0.00 0.00 85 1011.9
20260503050009 15 98 0.0 1.6 0.00 0.00 0.00 84 1012.2
20260503044543 15 97 0.0 1.6 0.00 0.00 0.00 83 1011.9
20260503043012 15 159 0.0 0.0 0.00 0.00 0.00 82 1011.8
20260503034532 16 169 0.0 0.0 0.00 0.00 0.00 79 1011.9
20260503021550 17 112 0.0 4.8 0.00 0.00 0.00 75 1011.8
20260503020027 18 150 0.0 0.0 0.00 0.00 0.00 71 1011.4
20260503014524 19 150 0.0 0.0 0.00 0.00 0.00 70 1010.9
20260503011535 20 139 0.0 0.0 0.00 0.00 0.00 64 1010.8
20260503004536 20 190 0.0 1.6 0.00 0.00 0.00 65 1010.8
20260503003007 20 114 0.0 3.2 0.00 0.00 0.00 65 1010.8